Quincy, IL

2:58 AM CDT on September 18, 2019 (GMT -0500)
Quincy Regional-Baldwin

Weather History for KUIN - July, 2019

Change the Weather History Date:

Saturday, July 20, 2019

  Actual Average Record
Temperature  
Mean Temperature 84 °F 76 °F  
Max Temperature 94 °F 86 °F 109 °F (1934)
Min Temperature 73 °F 66 °F 55 °F (1971)
Degree Days  
Heating Degree Days 0 0  
Month to date heating degree days 0 0  
Since 1 June heating degree days 5 16  
Since 1 July heating degree days 0 0  
Cooling Degree Days 19 11  
Month to date cooling degree days 321 220  
Year to date cooling degree days 668 533  
Since 1 June cooling degree days 558 447  
Growing Degree Days 33 (Base 50)    
Moisture  
Dew Point 71 °F    
Average Humidity 64    
Maximum Humidity 79    
Minimum Humidity 49    
Precipitation  
Precipitation 0.05 in 0.13 in 3.41 in (1949)
Month to date precipitation 0.94 2.68  
Year to date precipitation 24.34 20.76  
Sea Level Pressure  
Sea Level Pressure 29.88 in    
Wind  
Wind Speed 12 mph (SW)    
Max Wind Speed 32 mph    
Max Gust Speed 42 mph    
Visibility 10 miles    
Events Rain , Thunderstorm    
T = Trace of Precipitation, MM = Missing Value Source: NWS Daily Summary

Daily Weather History Graph

Daily Weather History Graph

Search for Another Location

Airport or City:

Astronomy

Jul. 20, 2019 Rise Set
Actual Time 5:52 AM CDT 8:29 PM CDT
Civil Twilight 5:21 AM CDT 9:00 PM CDT
Nautical Twilight 4:41 AM CDT 9:39 PM CDT
Astronomical Twilight 3:57 AM CDT 10:23 PM CDT
Moon 10:57 PM CDT (7/20) 9:16 AM CDT (7/20)
Length of Visible Light 15h 39m
Length of Day
14h 36m
Waning Gibbous, 87% of the Moon is Illuminated
Jul 20
Waning Gibbous
Jul 24
Last Quarter
Jul 31
New
Aug 7
First Quarter
Aug 15
Full

Hourly Weather History & Observations

Time (CDT) Temp. Heat Index Dew Point Humidity Pressure Visibility Wind Dir Wind Speed Gust Speed Precip Events Conditions
12:54 AM 82.0 °F 87.9 °F 73.9 °F 76% 29.86 in 10.0 mi South 9.2 mph - N/A   Clear
1:54 AM 82.0 °F 87.9 °F 73.9 °F 76% 29.86 in 10.0 mi SSW 13.8 mph - N/A   Clear
2:54 AM 81.0 °F 85.8 °F 73.0 °F 77% 29.85 in 10.0 mi SSW 10.4 mph - N/A   Clear
3:54 AM 80.1 °F 84.2 °F 73.0 °F 79% 29.86 in 10.0 mi SSW 8.1 mph - N/A   Clear
4:54 AM 79.0 °F - 72.0 °F 79% 29.86 in 10.0 mi SSW 11.5 mph - N/A   Clear
5:54 AM 78.1 °F - 72.0 °F 81% 29.88 in 10.0 mi SSW 10.4 mph - N/A   Clear
6:54 AM 79.0 °F - 72.0 °F 79% 29.88 in 10.0 mi South 8.1 mph - N/A   Clear
7:54 AM 81.0 °F 85.2 °F 72.0 °F 74% 29.87 in 10.0 mi SW 10.4 mph - N/A   Clear
8:54 AM 84.0 °F 90.2 °F 73.0 °F 69% 29.86 in 10.0 mi SSW 13.8 mph - N/A   Clear
9:54 AM 84.9 °F 91.4 °F 73.0 °F 67% 29.86 in 10.0 mi SSW 17.3 mph 23.0 mph N/A   Clear
10:54 AM 88.0 °F 96.5 °F 73.9 °F 63% 29.87 in 10.0 mi SSW 15.0 mph 20.7 mph N/A   Clear
11:54 AM 90.0 °F 99.0 °F 73.9 °F 59% 29.87 in 10.0 mi SSW 11.5 mph 20.7 mph N/A   Clear
12:54 PM 91.9 °F 101.3 °F 73.9 °F 55% 29.86 in 10.0 mi SSW 11.5 mph - N/A   Clear
1:54 PM 93.0 °F 101.9 °F 73.0 °F 52% 29.85 in 10.0 mi SSW 12.7 mph - N/A   Clear
2:54 PM 93.0 °F 100.7 °F 72.0 °F 50% 29.86 in 10.0 mi SSW 11.5 mph 19.6 mph N/A   Clear
3:54 PM 93.9 °F 103.4 °F 73.0 °F 51% 29.82 in 10.0 mi SSW 11.5 mph 23.0 mph N/A   Clear
4:54 PM 93.0 °F 100.7 °F 72.0 °F 50% 29.83 in 10.0 mi South 11.5 mph - N/A   Clear
5:54 PM 91.9 °F 100.7 °F 73.0 °F 54% 29.82 in 10.0 mi South 10.4 mph - N/A   Clear
6:54 PM 91.0 °F 99.3 °F 73.0 °F 55% 29.81 in 10.0 mi South 10.4 mph - N/A   Clear
7:54 PM 88.0 °F 96.5 °F 73.9 °F 63% 29.83 in 10.0 mi South 3.5 mph - N/A   Clear
8:54 PM 84.9 °F 94.1 °F 75.9 °F 74% 29.85 in 10.0 mi SSE 5.8 mph - N/A   Scattered Clouds
9:54 PM 79.0 °F - 64.9 °F 62% 29.90 in 10.0 mi NNW 26.5 mph 41.4 mph N/A   Overcast
10:06 PM 77.0 °F - 64.9 °F 66% 29.93 in 10.0 mi NNW 18.4 mph 35.7 mph N/A Thunderstorm Overcast
10:21 PM 75.9 °F - 66.0 °F 71% 29.94 in 10.0 mi NW 19.6 mph 28.8 mph N/A   Overcast
10:28 PM 75.0 °F - 66.9 °F 76% 29.94 in 10.0 mi NW 18.4 mph 28.8 mph N/A Thunderstorm Overcast
10:54 PM 73.0 °F - 68.0 °F 84% 29.93 in 10.0 mi West 13.8 mph 25.3 mph 0.00 in Rain , Thunderstorm Light Rain
11:18 PM 73.9 °F - 68.0 °F 82% 29.94 in 10.0 mi West 8.1 mph - 0.00 in Thunderstorm Overcast
11:33 PM 73.9 °F - 69.1 °F 85% 29.93 in 10.0 mi SW 6.9 mph - 0.00 in   Mostly Cloudy
11:44 PM 73.9 °F - 69.1 °F 85% 29.94 in 10.0 mi SW 5.8 mph - 0.00 in Thunderstorm Scattered Clouds
11:54 PM 75.0 °F - 69.1 °F 82% 29.93 in 10.0 mi WSW 5.8 mph - 0.00 in Thunderstorm Scattered Clouds